Rbgn^[z[y[W
メイン
   新天体発見情報
     Comet C/2024 C3 (PANSTARRS)
投稿するにはまず登録を

フラット表示 前のトピック | 次のトピック
投稿者 スレッド
佐藤裕久
投稿日時: 2024-2-29 12:41
モデレータ
登録日: 2005-6-12
居住地: 日本
投稿: 2666
オンライン
Comet C/2024 C3 (PANSTARRS)

R. Weryk (西オンタリオ大学,物理および天文学科)の通報によると、2月9日UT、Haleakalaにある
Pan-STARRS2 1.8-m Ritchey-Chretien反射望遠鏡で得た画像から彗星を発見した。
4枚の45-秒のw-バンドサーベイ画像では、1".3-1".7のシーイングで、1".7 (半値全幅:FWHM)の
拡散した頭部が見え、p.a. 270°に向かって3"の尾がある可能性がある。
Werykは、小惑星状の発見前のPan-STARRS2の観測、2023年3月18.3日UT(20.9-22.2等)、2023年12月
17.6日(21.2-22.3等)と発見前のPan-STARRS1の観測、2023年3月25.3日(彗星が21.4-22.1等の時)を
見つけた。
小惑星センターのPCCP webpageに公表後、佐藤英貴氏(東京都文京区, 2月10.4日UT、CCD露出10枚の
スタック, "Deep Sky Chile" 0.51-m f/6.8 アストログラフ, Rio Hurtado, チリ, 遠隔操作: 恒星
状であった。2".2の円形範囲で測定した光度は21.4等であった。2月13.7日, 120-秒露出12枚のスタ
ック,0.51-m f/6.8 アストログラフ, Siding Spring, NSW, オーストラリア, 遠隔操作: 強く集光
した4"のコマがp.a. 315°に向かって伸びて見える。3".2の円形範囲で測定した光度は21.0等であっ
た)らCCD位置観測者によって彗星状と観測された。

彗星機能の報告は次のとおり、

OC   Date        Reporter           Coma    Tail    PA          Exposures
Q62  2024-02-13  H. Sato            4"              315          12x120s
W62  2024-02-18  J. Maikner         3"        5"     35          60x120s
T12  2024-02-20  Y. Ramanjooloo     2".1      3".9  300           4x120s

発見位置は次のとおり、

     2024 UT             R.A. (2000) Decl.       Mag.
     Feb.  9.46625   11 36 55.05   + 9 08 36.3   21.7
           9.48979   11 36 54.60   + 9 08 37.5   21.4
           9.50172   11 36 54.38   + 9 08 37.9   21.9

MPCの楕円軌道要素、位置推算表は次のとおり、

Orbital elements:
    C/2024 C3 (PANSTARRS)                                                       
Epoch 2024 Mar. 31.0 TT = JDT 2460400.5                                         
T 2023 Nov. 8.32494 TT                                  Rudenko                 
q   6.7124487            (2000.0)            P               Q                  
n   0.02481686     Peri.  159.66933     -0.93605387     -0.35185133             
a  11.6404953      Node   359.70787     +0.24614453     -0.65085792             
e   0.4233537      Incl.   22.46633     +0.25142797     -0.67274409             
P  39.7                                                                         
From 44 observations 2023 Mar. 18-2024 Feb. 20, mean residual 0".3.             
                                                                                
Ephemeris:
Date    TT    R. A. (2000) Decl.     Delta      r    Elong.  Phase   m1
2024 01 22    11 41 12.6 +09 01 26   6.0607  6.7202   128.7     6.6  21.2
...
2024 02 06    11 37 56.1 +09 06 27   5.8960  6.7236   144.5     4.9  21.1
...
2024 02 14    11 35 27.6 +09 11 52   5.8303  6.7257   153.1     3.8  21.1
...
2024 02 20    11 33 20.4 +09 16 40   5.7926  6.7274   159.5     3.0  21.1
2024 02 21    11 32 58.1 +09 17 30   5.7874  6.7276   160.5     2.8  21.1
2024 02 22    11 32 35.5 +09 18 20   5.7824  6.7279   161.6     2.7  21.1
...
2024 02 28    11 30 14.9 +09 23 27   5.7588  6.7297   167.7     1.8  21.1
...
2024 03 07    11 26 57.8 +09 30 02   5.7443  6.7323   174.2     0.9  21.1
...
2024 03 22    11 20 44.3 +09 39 21   5.7708  6.7376   164.8     2.2  21.1

(MPEC 2024-D97、CBET 5353)

フラット表示 前のトピック | 次のトピック

題名 投稿者 日時
 » Comet C/2024 C3 (PANSTARRS) 佐藤裕久 2024-2-29 12:41

投稿するにはまず登録を
 
© 1999 Tsutomu Seki.